| time (UTC) | temp C | wind direction | speed KPH | gust KPH | rain 1hr cm | rain 24hr cm | rain mn cm | humidity % | barometer mb |
| 20260904124524 | 23 | 198 | 0.0 | 0.0 | 0.00 | 0.03 | 0.00 | 85 | 1008.0 |
| 20260904123020 | 23 | 7 | 0.0 | 0.0 | 0.00 | 0.03 | 0.00 | 90 | 1008.1 |
| 20260904121518 | 22 | 7 | 0.0 | 0.0 | 0.00 | 0.03 | 0.00 | 93 | 1008.2 |
| 20260904120013 | 22 | 7 | 0.0 | 0.0 | 0.00 | 0.03 | 0.00 | 94 | 1008.1 |
| 20260904114511 | 22 | 6 | 0.0 | 0.0 | 0.00 | 0.03 | 0.00 | 95 | 1008.2 |
| 20260904113027 | 22 | 7 | 0.0 | 0.0 | 0.00 | 0.03 | 0.00 | 96 | 1008.2 |
| 20260904111521 | 21 | 7 | 0.0 | 0.0 | 0.00 | 0.03 | 0.00 | 97 | 1008.0 |
| 20260904110010 | 21 | 7 | 0.0 | 0.0 | 0.00 | 0.05 | 0.00 | 96 | 1008.1 |
| 20260904104509 | 21 | 7 | 0.0 | 0.0 | 0.00 | 0.05 | 0.00 | 96 | 1008.2 |
| 20260904103009 | 21 | 7 | 0.0 | 0.0 | 0.00 | 0.05 | 0.00 | 96 | 1008.0 |
| 20260904101508 | 21 | 7 | 0.0 | 0.0 | 0.00 | 0.05 | 0.00 | 96 | 1008.0 |
| 20260904100007 | 21 | 7 | 0.0 | 0.0 | 0.00 | 0.08 | 0.00 | 96 | 1007.9 |
| 20260904094506 | 21 | 7 | 0.0 | 0.0 | 0.00 | 0.08 | 0.00 | 96 | 1007.7 |
| 20260904093005 | 21 | 7 | 0.0 | 0.0 | 0.00 | 0.08 | 0.00 | 96 | 1007.6 |
| 20260904091503 | 21 | 7 | 0.0 | 0.0 | 0.00 | 0.08 | 0.00 | 96 | 1007.6 |
| 20260904090002 | 21 | 7 | 0.0 | 0.0 | 0.00 | 0.46 | 0.00 | 96 | 1007.7 |
| 20260904084501 | 21 | 7 | 0.0 | 0.0 | 0.00 | 0.46 | 0.00 | 96 | 1007.7 |
| 20260904083100 | 21 | 7 | 0.0 | 0.0 | 0.00 | 0.46 | 0.00 | 96 | 1007.7 |
| 20260904081558 | 21 | 7 | 0.0 | 0.0 | 0.00 | 0.46 | 0.00 | 95 | 1007.6 |
| 20260904080057 | 22 | 7 | 0.0 | 0.0 | 0.00 | 0.46 | 0.00 | 95 | 1007.6 |
| 20260904074555 | 22 | 7 | 0.0 | 0.0 | 0.00 | 0.46 | 0.00 | 94 | 1007.6 |
| 20260904073054 | 22 | 7 | 0.0 | 0.0 | 0.00 | 0.46 | 0.00 | 94 | 1007.7 |
| 20260904071548 | 22 | 6 | 0.0 | 0.0 | 0.00 | 0.46 | 0.00 | 93 | 1008.1 |
| 20260904070047 | 22 | 7 | 0.0 | 0.0 | 0.00 | 0.46 | 0.00 | 94 | 1008.2 |
| 20260904064549 | 22 | 7 | 0.0 | 0.0 | 0.00 | 0.46 | 0.00 | 94 | 1008.3 |
| 20260904063043 | 22 | 6 | 0.0 | 0.0 | 0.00 | 0.46 | 0.00 | 94 | 1008.4 |
| 20260904061548 | 22 | 7 | 0.0 | 0.0 | 0.00 | 0.46 | 0.00 | 94 | 1008.5 |
| 20260904060040 | 22 | 7 | 0.0 | 0.0 | 0.00 | 0.46 | 0.00 | 94 | 1008.6 |
| 20260904054538 | 22 | 6 | 0.0 | 3.2 | 0.00 | 0.46 | 0.00 | 94 | 1008.6 |
| 20260904053036 | 22 | 338 | 0.0 | 1.6 | 0.00 | 0.46 | 0.00 | 94 | 1008.7 |
| 20260904051535 | 22 | 10 | 0.0 | 0.0 | 0.00 | 0.46 | 0.00 | 94 | 1009.0 |
| 20260904050032 | 22 | 8 | 0.0 | 1.6 | 0.00 | 0.46 | 0.00 | 94 | 1009.0 |
| 20260904044539 | 22 | 9 | 0.0 | 0.0 | 0.00 | 0.46 | 0.00 | 94 | 1009.0 |
| 20260904043025 | 22 | 9 | 0.0 | 1.6 | 0.00 | 0.46 | 0.00 | 94 | 1009.3 |
| 20260904041532 | 22 | 114 | 0.0 | 0.0 | 0.00 | 0.46 | 0.00 | 94 | 1009.4 |
| 20260904040116 | 22 | 228 | 0.0 | 1.6 | 0.00 | 0.46 | 0.00 | 94 | 1009.4 |
| 20260904034515 | 22 | 360 | 0.0 | 0.0 | 0.00 | 0.46 | 0.46 | 93 | 1009.4 |
| 20260904033015 | 22 | 2 | 0.0 | 0.0 | 0.00 | 0.46 | 0.46 | 93 | 1009.4 |
| 20260904031514 | 22 | 359 | 0.0 | 0.0 | 0.00 | 0.46 | 0.46 | 93 | 1009.5 |
| 20260904030014 | 22 | 359 | 0.0 | 0.0 | 0.00 | 0.46 | 0.46 | 93 | 1009.4 |
| 20260904024514 | 22 | 359 | 0.0 | 0.0 | 0.00 | 0.46 | 0.46 | 92 | 1009.6 |
| 20260904023013 | 23 | 358 | 0.0 | 0.0 | 0.00 | 0.46 | 0.46 | 92 | 1009.8 |
| 20260904021515 | 23 | 358 | 0.0 | 0.0 | 0.00 | 0.46 | 0.46 | 92 | 1009.8 |
| 20260904020012 | 23 | 358 | 0.0 | 0.0 | 0.00 | 0.46 | 0.46 | 92 | 1009.9 |
| 20260904014512 | 23 | 358 | 0.0 | 1.6 | 0.00 | 0.46 | 0.46 | 91 | 1010.1 |
| 20260904013011 | 23 | 358 | 0.0 | 0.0 | 0.00 | 0.46 | 0.46 | 90 | 1010.3 |
| 20260904011510 | 23 | 358 | 0.0 | 0.0 | 0.00 | 0.46 | 0.46 | 91 | 1010.4 |
| 20260904010010 | 23 | 359 | 0.0 | 0.0 | 0.00 | 0.46 | 0.46 | 90 | 1010.2 |
| 20260904004510 | 23 | 359 | 0.0 | 0.0 | 0.00 | 0.46 | 0.46 | 90 | 1010.0 |
| 20260904003009 | 23 | 359 | 0.0 | 0.0 | 0.00 | 0.46 | 0.46 | 90 | 1010.0 |
| 20260904001509 | 23 | 359 | 0.0 | 0.0 | 0.00 | 0.46 | 0.46 | 89 | 1009.8 |
| 20260904000007 | 24 | 359 | 0.0 | 0.0 | 0.00 | 0.46 | 0.46 | 88 | 1009.4 |
| 20260903234509 | 24 | 359 | 0.0 | 0.0 | 0.00 | 0.46 | 0.46 | 87 | 1009.4 |
| 20260903233008 | 25 | 359 | 0.0 | 0.0 | 0.00 | 0.46 | 0.46 | 86 | 1009.3 |
| 20260903231505 | 25 | 359 | 0.0 | 0.0 | 0.00 | 0.46 | 0.46 | 85 | 1009.2 |
| 20260903230003 | 26 | 359 | 0.0 | 0.0 | 0.00 | 0.46 | 0.46 | 83 | 1009.0 |
| 20260903224502 | 26 | 359 | 0.0 | 0.0 | 0.00 | 0.46 | 0.46 | 81 | 1009.2 |
| 20260903223114 | 26 | 359 | 0.0 | 0.0 | 0.00 | 0.46 | 0.46 | 80 | 1009.3 |
| 20260903221559 | 26 | 359 | 0.0 | 0.0 | 0.00 | 0.46 | 0.46 | 79 | 1009.5 |
| 20260903220107 | 27 | 2 | 0.0 | 3.2 | 0.00 | 0.46 | 0.46 | 78 | 1009.4 |
| 20260903214559 | 27 | 342 | 0.0 | 1.6 | 0.00 | 0.46 | 0.46 | 76 | 1009.3 |
| 20260903213058 | 27 | 10 | 0.0 | 3.2 | 0.00 | 0.46 | 0.46 | 78 | 1009.2 |
| 20260903211610 | 27 | 344 | 0.0 | 3.2 | 0.00 | 0.46 | 0.46 | 76 | 1009.4 |
| 20260903210057 | 27 | 200 | 0.0 | 3.2 | 0.00 | 0.46 | 0.46 | 76 | 1009.3 |
| 20260903204602 | 27 | 189 | 0.0 | 1.6 | 0.00 | 0.46 | 0.46 | 75 | 1009.3 |
| 20260903203055 | 27 | 202 | 0.0 | 0.0 | 0.00 | 0.46 | 0.46 | 78 | 1009.3 |
| 20260903201553 | 28 | 191 | 0.0 | 1.6 | 0.00 | 0.46 | 0.46 | 75 | 1009.6 |
| 20260903200054 | 28 | 169 | 0.0 | 0.0 | 0.00 | 0.46 | 0.46 | 75 | 1009.7 |
| 20260903194553 | 28 | 172 | 0.0 | 1.6 | 0.00 | 0.46 | 0.46 | 73 | 1009.8 |
| 20260903193050 | 28 | 188 | 0.0 | 1.6 | 0.00 | 0.46 | 0.46 | 74 | 1009.9 |
| 20260903191556 | 27 | 15 | 0.0 | 8.0 | 0.00 | 0.46 | 0.46 | 76 | 1010.1 |
| 20260903190045 | 27 | 176 | 0.0 | 3.2 | 0.00 | 0.46 | 0.46 | 76 | 1010.1 |
| 20260903184542 | 27 | 200 | 0.0 | 3.2 | 0.00 | 0.46 | 0.46 | 77 | 1010.4 |
| 20260903183101 | 26 | 173 | 0.0 | 3.2 | 0.00 | 0.46 | 0.46 | 77 | 1010.5 |
| 20260903181538 | 27 | 12 | 0.0 | 4.8 | 0.00 | 0.46 | 0.46 | 77 | 1010.5 |
| 20260903180039 | 27 | 355 | 0.0 | 6.4 | 0.00 | 0.46 | 0.46 | 79 | 1010.6 |
| 20260903174537 | 26 | 22 | 0.0 | 3.2 | 0.00 | 0.46 | 0.46 | 79 | 1010.6 |
| 20260903173037 | 26 | 355 | 0.0 | 4.8 | 0.00 | 0.46 | 0.46 | 80 | 1010.6 |
| 20260903171534 | 27 | 79 | 0.0 | 4.8 | 0.00 | 0.46 | 0.46 | 78 | 1010.7 |
| 20260903170033 | 26 | 335 | 0.0 | 6.4 | 0.00 | 0.46 | 0.46 | 80 | 1011.0 |
| 20260903164529 | 27 | 207 | 0.0 | 3.2 | 0.00 | 0.46 | 0.46 | 82 | 1010.8 |
| 20260903163026 | 26 | 204 | 0.0 | 4.8 | 0.00 | 0.46 | 0.46 | 86 | 1010.8 |
| 20260903161532 | 25 | 196 | 0.0 | 0.0 | 0.00 | 0.46 | 0.46 | 88 | 1010.8 |
| 20260903160119 | 25 | 202 | 0.0 | 0.0 | 0.00 | 0.46 | 0.46 | 89 | 1011.0 |
| 20260903154514 | 24 | 194 | 0.0 | 0.0 | 0.00 | 0.46 | 0.46 | 90 | 1011.1 |
| 20260903153011 | 23 | 192 | 0.0 | 0.0 | 0.00 | 0.46 | 0.46 | 92 | 1011.4 |
| 20260903151508 | 23 | 192 | 0.0 | 0.0 | 0.00 | 0.46 | 0.46 | 92 | 1011.6 |
| 20260903150003 | 22 | 194 | 0.0 | 3.2 | 0.00 | 0.46 | 0.46 | 94 | 1011.7 |
| 20260903144601 | 22 | 188 | 0.0 | 0.0 | 0.00 | 0.46 | 0.46 | 95 | 1012.0 |
| 20260903143058 | 22 | 188 | 0.0 | 0.0 | 0.00 | 0.46 | 0.46 | 96 | 1012.3 |
| 20260903141555 | 22 | 207 | 0.0 | 0.0 | 0.03 | 0.46 | 0.46 | 97 | 1012.3 |
| 20260903140054 | 21 | 197 | 0.0 | 1.6 | 0.03 | 0.46 | 0.46 | 97 | 1012.6 |
| 20260903134605 | 21 | 188 | 0.0 | 1.6 | 0.03 | 0.46 | 0.46 | 97 | 1012.6 |
| 20260903133052 | 21 | 177 | 0.0 | 1.6 | 0.03 | 0.46 | 0.46 | 97 | 1012.6 |
| 20260903131549 | 21 | 192 | 0.0 | 0.0 | 0.00 | 0.43 | 0.43 | 97 | 1012.9 |
| 20260903130050 | 21 | 192 | 0.0 | 0.0 | 0.00 | 0.43 | 0.43 | 97 | 1012.7 |